ECS 1

operational
NORAD ID: 14128 Int'l Des: 1983-058 Owner: ESA Country: I-ESA
HEOCIRCULAR

ECS 1について

説明を読み込み中...

リアルタイム位置

3D地球を読み込み中...

次回通過

高度履歴

Altitude vs Time

uPlot chart will show altitude changes over time

軌道要素

1 14128U 83058A 26062.03232701 -.00000282 00000-0 00000+0 0 9996
2 14128 11.9706 330.4430 0006417 174.8871 185.1378 0.98872709 45667
Epoch: Mar 3, 2026 • Age: 24 hours

現在のステータス

高度 36210.6 km
速度 3.06 km/s
衛星直下点 -2.46°S, 153.37°E
打ち上げ日 Jun 16, 1983
運用期間 42.7 years
タイプ other

技術仕様

分類 Payload
質量 573.00 kg
乾燥質量 466.00 kg
総質量 1043.00 kg
長さ 2.40 m
直径 2.20 m
スパン 13.80 m
形状 Box + 2 Pan
製造者 BAES
バスタイプ ECS
フェーズステータス In Orbit
所有者/国 ESA/I-ESA

大規模コンステレーション

Loading constellations...